#timestamp,LO_Frequency,Hit,StdDev 
1585123215.5,286046980.9,P
1585123235.3,286046976.6,N
1585123255.1,286046973.6,N
1585123275.9,286046971.6,N
1585123295.7,286046969.8,N
1585123315.5,286046973.0,N
1585123335.4,286046975.4,N
1585123355.2,286046971.2,Y
1585123375.1,286046991.5,P
1585123376.0,286046991.5,N
1585123395.8,286046988.0,N
1585123415.6,286046984.1,N
1585123435.5,286046982.4,Y
1585123455.3,286046997.7,P
1585123475.2,286046993.3,N
1585123495.9,286046990.5,N
1585123515.7,286046996.0,N
1585123535.6,286046993.5,N
1585123555.4,286047009.7,N
1585123575.2,286047006.6,N
1585123595.1,286046997.7,N
1585123596.0,286046997.7,N
1585123615.8,286046992.8,N
1585123635.7,286046990.8,N
1585123655.5,286046992.6,N
1585123675.3,286046989.9,N
1585123695.2,286046989.2,N
1585123715.0,286046983.8,N
1585123715.9,286046983.8,N
1585123735.7,286046989.2,N
1585123755.6,286046992.4,N
1585123775.4,286046989.8,N
1585123795.3,286046977.2,Y
1585123815.1,286046981.7,P
1585123816.0,286046981.7,P
1585123835.8,286046987.0,N
1585123855.7,286046982.7,Y
1585123875.5,286046999.0,P
1585123895.4,286047001.2,N
1585123915.2,286047010.9,N
1585123935.0,286047011.9,N
1585123935.9,286047011.9,N
1585123955.8,286047012.0,N
1585123975.6,286047005.5,N
1585123995.4,286047001.1,N
1585124015.3,286046999.3,N
1585124035.1,286046983.4,N
1585124055.9,286046979.8,N
1585124075.7,286046977.7,N
1585124095.5,286046977.9,N
1585124115.4,286046975.0,N
1585124135.2,286046980.2,N
1585124155.0,286046977.4,N
1585124156.0,286046977.4,N
1585124175.8,286046973.4,N
1585124195.6,286046972.0,N
1585124215.5,286046968.9,N
1585124235.3,286046965.1,N
1585124255.1,286046967.7,N
1585124275.9,286046963.7,N
1585124295.7,286046962.4,N
1585124315.6,286046958.2,N
1585124335.4,286046960.0,N
1585124355.2,286046958.7,N
1585124375.1,286046958.3,N
1585124376.0,286046958.3,N
1585124395.8,286046958.2,N
1585124415.6,286046960.8,N
1585124435.5,286046962.5,N
1585124455.3,286046962.4,N
1585124475.2,286046957.6,N
1585124495.9,286046951.4,N
1585124515.7,286046949.5,Y
1585124535.6,286046975.4,P
1585124555.4,286046971.8,P
1585124575.2,286046974.0,P
1585124595.1,286046977.2,Y
1585124596.0,286046977.2,P
1585124615.8,286047002.0,N
1585124635.7,286047008.5,N
1585124655.5,286047012.4,N
1585124675.3,286047007.2,N
1585124695.2,286047002.5,N
1585124715.0,286047000.0,N
1585124715.9,286047000.0,N
1585124735.8,286046996.9,N
1585124755.6,286046997.6,N
1585124775.4,286046994.6,N
1585124795.3,286046996.5,N
1585124815.1,286046997.1,N
1585124835.8,286046999.9,N
1585124855.7,286047001.7,N
1585124875.5,286047003.7,N
1585124895.4,286047003.1,N
1585124915.2,286046995.4,N
1585124935.0,286046991.9,N
1585124935.9,286046991.9,N
1585124955.8,286046994.4,N
1585124975.6,286046989.6,N
1585124995.5,286046991.2,N
1585125015.3,286046987.2,N
1585125035.1,286046991.6,N
1585125055.9,286046984.3,N
1585125075.7,286046985.6,N
1585125095.5,286046978.9,N
1585125115.4,286046981.0,N
1585125135.2,286046981.6,N
1585125155.1,286046979.3,N
1585125156.0,286046979.3,N
1585125175.8,286046975.3,N
1585125195.6,286046972.2,Y
1585125215.5,286046978.3,P
1585125235.3,286046974.5,P
1585125255.2,286046971.6,P
1585125275.9,286046968.7,Y
1585125295.7,286046989.9,P
1585125315.6,286046988.9,N
1585125335.4,286046990.5,N
1585125355.3,286046991.7,N
1585125375.1,286046988.5,N
1585125376.0,286046988.5,N
1585125395.8,286046988.7,Y
1585125415.7,286047004.1,P
1585125435.5,286047000.0,N
1585125455.3,286046997.6,N
1585125475.2,286046997.5,N
1585125495.0,286046997.5,N
1585125495.9,286046997.5,N
1585125515.8,286046991.7,N
1585125535.6,286046990.1,N
1585125555.4,286046990.3,N
1585125575.3,286046991.1,N
1585125595.1,286046988.8,N
1585125615.8,286046990.0,N
1585125635.7,286046987.0,N
1585125655.5,286046987.6,N
1585125675.4,286046989.9,N
1585125695.2,286046985.4,N
1585125715.0,286046989.8,N
1585125715.9,286046989.8,N
1585125735.8,286046987.1,N
1585125755.6,286046984.0,Y
1585125775.4,286046986.9,P
1585125795.3,286046987.2,P
1585125815.1,286046985.3,P
1585125835.9,286046985.6,Y
1585125855.7,286046993.5,P
1585125875.5,286046994.8,N
1585125895.4,286046989.3,P
1585125915.2,286046988.1,Y
1585125935.0,286046998.0,P
1585125936.0,286046998.0,N
1585125955.8,286046999.7,N
1585125975.6,286046996.5,N
1585125995.5,286046996.1,N
1585126015.3,286046994.7,N
1585126035.1,286046994.4,N
1585126055.9,286046996.2,N
1585126075.7,286046993.0,Y
1585126095.6,286046995.2,P
1585126115.4,286046993.4,P
1585126135.2,286046993.4,P
1585126155.1,286046997.9,N
1585126156.0,286046997.9,N
1585126175.8,286046994.1,Y
1585126195.6,286046999.0,P
1585126215.5,286046995.1,N
1585126235.3,286046994.5,P
1585126255.2,286046992.9,Y
1585126275.9,286046996.0,P
1585126295.7,286046992.6,P
1585126315.6,286046989.3,P
1585126335.4,286046989.4,Y
1585126355.3,286046995.3,P
1585126375.1,286046998.0,N
1585126376.0,286046998.0,N
1585126395.8,286046996.9,N
1585126415.7,286046999.9,N
1585126435.5,286047002.8,N
1585126455.3,286047005.6,N
1585126475.2,286047000.6,N
1585126495.0,286047000.7,N
1585126495.9,286047000.7,N
1585126515.8,286046998.0,N
1585126535.6,286046992.8,N
1585126555.5,286046996.1,N
1585126575.3,286046996.4,N
1585126595.1,286046993.9,N
1585126615.9,286046993.7,N
1585126635.7,286046992.0,N
1585126655.5,286046994.8,N
1585126675.4,286046990.3,N
1585126695.2,286046987.2,Y
1585126715.1,286046993.7,P
1585126716.0,286046993.7,P
1585126735.8,286046995.6,N
1585126755.7,286046996.4,N
1585126775.5,286046995.2,Y
1585126795.3,286046998.4,P
